Other Public Products
Issued by NWS Charleston, SC

Current Version | Previous Version | Text Only | Print | Product List | Glossary Off
Versions: 1 2 3 4 5 6 7 8 9 10 11 12 13 14 15 16 17 18 19 20 21 22 23 24 25 26 27 28 29 30 31 32 33 34 35 36 37 38 39 40 41 42 43 44 45 46 47 48 49 50

196
FPUS82 KCHS 212228
OPUCHS

TEST...KCHS/KSAV Gateway Observations...TEST
National Weather Service Charleston SC
600 PM EDT THU SEP 21 2017

NOTE: "fair" indicates few or no clouds below 12,000 feet with no
significant weather and/or obstructions to visibility.

SCZ050-WAZ558-NCZ071-TXZ119-213-PAZ071-DCZ001-FLZ074-172-MI076-
NYZ176-178-MAZ016-IL014-TNZ027-NJZ106-GAZ044-MD014-212300-

...Gateway Observations for Charleston International...

CITY           SKY/WX    TMP DP  RH WIND       PRES   REMARKS
Chas Airport   CLOUDY    77  69  76 CALM      29.97S
Seattle        PTSUNNY   59  48  67 CALM      29.95S
Charlotte      MOSUNNY   87  65  47 N9        30.01S
Dallas DFW     MOSUNNY   96  67  38 S13G25    29.84F HX 100
Dallas Love    MOSUNNY   96  67  38 SE17      29.85F HX 100
Philladelphia  PTSUNNY   84  60  44 N10       29.99R
Wash National  MOSUNNY   85  65  51 NW8       30.01S
Baltimore      MOSUNNY   85  64  49 VRB6      30.00S
Miami          LGT RAIN  85  77  77 NE8       29.88F HX  95
Detroit        MOSUNNY   84  72  67 S7        30.04R
Newark         MOCLDY    81  59  47 NE15      29.99S
Laguardia      CLOUDY    78  63  59 N10       29.99S
J F K          CLOUDY    78  63  59 N14       30.00R
Boston Logan   CLOUDY    69  52  54 N18G24    30.01R
Ft. Lauderdale PTSUNNY   83  76  79 NE12      29.88S HX  91
Chicago O`Hare PTSUNNY   93  63  36 S10       29.97S HX  94
Chicago Midway MOSUNNY   93  67  42 SW8       29.97S HX  96
Houston Bush   CLOUDY    79  71  76 S6        29.93F
Houston Hobby  LGT RAIN  78  73  84 SE9       29.93F
Nashville      MOSUNNY   86  69  56 CALM      30.02S HX  90
Atlanta        TSTM      81  66  60 E15       30.00S

$$

GAZ044-118-TXZ119-213-NCZ071-DCZ001-MDZ014-506-PAZ021-071-NJZ106-
NYZ176-178-MAZ106-OHZ011-021-055-MIZ076-KYZ091-ILZ014-INZ047-
MNZ060-ONZ431-212300-

...Gateway Observations for Savannah International...

CITY           SKY/WX    TMP DP  RH WIND       PRES   REMARKS
Savannah Arpt  MOSUNNY   87  69  54 S10       29.96S HX  91
Atlanta        TSTM      81  66  60 E15       30.00S
Charlotte      MOSUNNY   87  65  47 N9        30.01S
Dallas DFW     MOSUNNY   96  67  38 S13G25    29.84F HX 100
Houston Bush   CLOUDY    79  71  76 S6        29.93F
Wash National  MOSUNNY   85  65  51 NW8       30.01S
Wash Dulles    PTSUNNY   83  63  50 N7        30.03R
Baltimore      MOSUNNY   85  64  49 VRB6      30.00S
Philadelphia   PTSUNNY   84  60  44 N10       29.99R
Newark         MOCLDY    81  59  47 NE15      29.99S
Laguardia      CLOUDY    78  63  59 N10       29.99S
J F K          CLOUDY    78  63  59 N14       30.00R
Boston         CLOUDY    69  52  54 N18G24    30.01R
Pittsburg      MOSUNNY   86  61  42 CALM      30.08S
Akron          MOSUNNY   88  60  38 CALM      30.07F
Cleveland      MOSUNNY   86  65  49 NE9       30.08S
Cincinnati     PTSUNNY   83  72  69 S8        30.04F THUNDER
Columbus       SUNNY     85  65  51 SE3       30.04S
Detroit        MOSUNNY   84  72  67 S7        30.04R
Chicago O`Hare PTSUNNY   93  63  36 S10       29.97S HX  94
Minneapolis    MOSUNNY   83  69  62 SE16      29.80F
Indianapolis   MOSUNNY   89  67  47 SW7       30.02F HX  92
Toronto Canada MOSUNNY   79  59  50 SE7       30.10S

$$




USA.gov is the U.S. government's official web portal to all federal, state and local government web resources and services.